Location: *
(41.0833°N, 73.4167°W)
Time: 16:30:27
(UTC+00:00)

CENTAUR R/B - Pass Details

Date: 22 October 2019
Orbit: 779 x 1409 km, 63.4° (Epoch: 19 November)

Event Time Altitude Azimuth Distance (km) Brightness Sun altitude
Rises 01:44:22 0° 255° (WSW) 3,502 5.9 -41.4°
Reaches altitude 10° 01:47:09 10° 267° (W) 2,649 5.3 -41.9°
Enters shadow 01:51:45 27° 315° (NW) 1,852 4.3 -42.6°
